Погода в Татарске

Россия / Новосибирская область     55°12′52″N   75°58′26″E
темп.,
°C
ветер,
м/с
пор.,
м/с
влажн.,
%
обл.,
%
осадки,
мм/ч
давл.,
гПа
погр.,
м
14 июня, пн
пн1401:00+15с46865 0.1 101991
04:00+14ссв47865 0.0 102090
07:00+14ссв36825 0.0 1021130
10:00+19св466313 0.0 1022425
13:00+23ссв455312 0.0 10221002
16:00+24ссв34496 0.0 10221428
19:00+24св235248 0.0 10211278
22:00+19ююв227143 0.0 102114
15 июня, вт
вт1501:00+16юз348398 0.1 102155
04:00+14зюз35919 0.3 102071
07:00+15зюз3691100 0.8 1020127
10:00+21зюз46739 0.0 1020402
13:00+25з46573 0.0 10191216
16:00+26з454840 0.0 10172334
19:00+26зсз3557100 0.0 10161134
22:00+21зюз227415 0.1 101512
16 июня, ср
ср1601:00+18юз336889 0.1 101541
04:00+17юз367376 0.0 101475
07:00+17зюз41074100 0.0 1013190
10:00+21з497498 0.2 1013324
13:00+26з4657100 0.2 1013844
16:00+27з565265 0.0 10121639
19:00+25з3669100 0.5 1010247
22:00+21сз3382100 0.7 101040
17 июня, чт
чт1701:00+17сз3490100 1.0 101058
04:00+16ююз3991100 2.5 1009210
07:00+16з389176 2.5 1009244
10:00+21сз348117 0.0 1009538
13:00+24сз336822 0.4 10081012
16:00+24зсз45655 1.6 10071249
19:00+25сз34610 1.6 10061491
22:00+20ссз227654 0.0 100613
18 июня, пт
пт1801:00+18ю457763 0.1 100666
04:00+16юз2292100 0.4 100422
07:00+17ююз38932 1.1 1003217
10:00+23ююз357368 0.3 1002369
13:00+27ююз675364 0.3 1000911
16:00+29зюз57485 0.0 10001551
19:00+25сз566873 0.0 999479
22:00+16зсз6994100 1.8 1002404